TimePDT,TemperatureF,Dew PointF,Humidity,Sea Level PressureIn,VisibilityMPH,Wind Direction,Wind SpeedMPH,Gust SpeedMPH,PrecipitationIn,Events,Conditions,WindDirDegrees,DateUTC
12:53 AM,52.0,44.1,74,30.08,10.0,NW,9.2,-,N/A,,Clear,310,2013-03-31 07:53:00
1:53 AM,50.0,44.1,80,30.08,10.0,NNW,9.2,-,N/A,,Clear,330,2013-03-31 08:53:00
2:53 AM,50.0,44.1,80,30.06,10.0,NW,5.8,-,N/A,,Clear,320,2013-03-31 09:53:00
3:53 AM,48.0,43.0,83,30.05,10.0,WNW,6.9,-,N/A,,Clear,300,2013-03-31 10:53:00
4:53 AM,48.0,44.1,86,30.04,10.0,NW,6.9,-,N/A,,Clear,310,2013-03-31 11:53:00
5:53 AM,46.0,44.1,93,30.05,10.0,Calm,Calm,-,N/A,,Clear,0,2013-03-31 12:53:00
6:53 AM,43.0,41.0,93,30.06,10.0,Calm,Calm,-,N/A,,Clear,0,2013-03-31 13:53:00
7:53 AM,43.0,39.9,89,30.06,10.0,Calm,Calm,-,N/A,,Clear,0,2013-03-31 14:53:00
8:53 AM,50.0,42.1,74,30.05,10.0,NW,6.9,-,N/A,,Clear,320,2013-03-31 15:53:00
9:53 AM,52.0,43.0,71,30.04,10.0,NW,9.2,-,N/A,,Clear,310,2013-03-31 16:53:00
10:53 AM,55.9,43.0,62,30.04,10.0,WNW,6.9,-,N/A,,Clear,300,2013-03-31 17:53:00
11:53 AM,60.1,44.1,55,30.04,10.0,NW,9.2,-,N/A,,Clear,310,2013-03-31 18:53:00
12:53 PM,63.0,44.1,50,30.02,10.0,NW,9.2,-,N/A,,Clear,310,2013-03-31 19:53:00
1:53 PM,64.9,43.0,45,30.00,10.0,NW,8.1,-,N/A,,Clear,310,2013-03-31 20:53:00
2:53 PM,66.9,43.0,42,29.98,10.0,NW,9.2,-,N/A,,Clear,310,2013-03-31 21:53:00
3:53 PM,69.1,46.0,44,29.95,10.0,WNW,9.2,-,N/A,,Clear,300,2013-03-31 22:53:00
4:53 PM,69.1,44.1,40,29.94,10.0,NW,6.9,-,N/A,,Clear,310,2013-03-31 23:53:00
5:53 PM,68.0,44.1,42,29.93,10.0,NW,6.9,-,N/A,,Clear,310,2013-04-01 00:53:00
6:53 PM,66.9,42.1,40,29.93,10.0,WNW,4.6,-,N/A,,Clear,290,2013-04-01 01:53:00
7:53 PM,60.1,45.0,57,29.93,10.0,Calm,Calm,-,N/A,,Clear,0,2013-04-01 02:53:00
8:53 PM,57.9,46.0,65,29.94,10.0,Calm,Calm,-,N/A,,Clear,0,2013-04-01 03:53:00
9:53 PM,54.0,48.0,80,29.96,10.0,Calm,Calm,-,N/A,,Clear,0,2013-04-01 04:53:00
10:53 PM,53.6,44.6,72,29.96,9.0,Calm,Calm,-,N/A,,Clear,0,2013-04-01 05:53:00
11:53 PM,53.1,45.0,74,29.99,10.0,Calm,Calm,-,N/A,,Clear,0,2013-04-01 06:53:00